Year,Month,Day,Hour,Minute,Value (Times are PST for temperature in C)
2009,08,29,00,00,18.90
2009,08,29,00,01,18.90
2009,08,29,00,02,18.90
2009,08,29,00,03,18.90
2009,08,29,00,04,18.90
2009,08,29,00,05,18.90
2009,08,29,00,06,18.90
2009,08,29,00,07,18.90
2009,08,29,00,08,18.90
2009,08,29,00,09,19.00
2009,08,29,00,10,19.10
2009,08,29,00,11,19.10
2009,08,29,00,12,19.10
2009,08,29,00,13,19.10
2009,08,29,00,14,19.10
2009,08,29,00,15,19.10
2009,08,29,00,16,19.10
2009,08,29,00,17,19.10
2009,08,29,00,18,19.10
2009,08,29,00,19,19.10
2009,08,29,00,20,19.20
2009,08,29,00,21,19.20
2009,08,29,00,22,19.20
2009,08,29,00,23,19.20
2009,08,29,00,24,19.10
2009,08,29,00,25,19.10
2009,08,29,00,26,19.10
2009,08,29,00,27,19.10
2009,08,29,00,28,19.10
2009,08,29,00,29,19.10
2009,08,29,00,30,19.10
2009,08,29,00,31,19.10
2009,08,29,00,32,19.10
2009,08,29,00,33,19.10
2009,08,29,00,34,19.10
2009,08,29,00,35,19.10
2009,08,29,00,36,19.10
2009,08,29,00,37,19.10
2009,08,29,00,38,19.10
2009,08,29,00,39,19.10
2009,08,29,00,40,19.10
2009,08,29,00,41,19.10
2009,08,29,00,42,19.10
2009,08,29,00,43,19.10
2009,08,29,00,44,19.10
2009,08,29,00,45,19.10
2009,08,29,00,46,19.10
2009,08,29,00,47,19.10
2009,08,29,00,48,19.10
2009,08,29,00,49,19.10
2009,08,29,00,50,19.10
2009,08,29,00,51,19.20
2009,08,29,00,52,19.20
2009,08,29,00,53,19.20
2009,08,29,00,54,19.20
2009,08,29,00,55,19.20
2009,08,29,00,56,19.20
2009,08,29,00,57,19.20
2009,08,29,00,58,19.20
2009,08,29,00,59,19.20
2009,08,29,01,00,19.20
2009,08,29,01,01,19.20
2009,08,29,01,02,19.30
2009,08,29,01,03,19.30
2009,08,29,01,04,19.30
2009,08,29,01,05,19.30
2009,08,29,01,06,19.30
2009,08,29,01,07,19.30
2009,08,29,01,08,19.30
2009,08,29,01,09,19.30
2009,08,29,01,10,19.30
2009,08,29,01,11,19.30
2009,08,29,01,12,19.30
2009,08,29,01,13,19.30
2009,08,29,01,14,19.30
2009,08,29,01,15,19.30
2009,08,29,01,16,19.20
2009,08,29,01,17,19.20
2009,08,29,01,18,19.20
2009,08,29,01,19,19.20
2009,08,29,01,20,19.10
2009,08,29,01,21,19.10
2009,08,29,01,22,19.10
2009,08,29,01,23,19.10
2009,08,29,01,24,19.10
2009,08,29,01,25,19.10
2009,08,29,01,26,19.00
2009,08,29,01,27,18.90
2009,08,29,01,28,18.90
2009,08,29,01,29,18.90
2009,08,29,01,30,18.90
2009,08,29,01,31,18.90
2009,08,29,01,32,18.80
2009,08,29,01,33,18.80
2009,08,29,01,34,18.80
2009,08,29,01,35,18.70
2009,08,29,01,36,18.70
2009,08,29,01,37,18.60
2009,08,29,01,38,18.60
2009,08,29,01,39,18.60
2009,08,29,01,40,18.50
2009,08,29,01,41,18.50
2009,08,29,01,42,18.40
2009,08,29,01,43,18.40
2009,08,29,01,44,18.30
2009,08,29,01,45,18.20
2009,08,29,01,46,18.20
2009,08,29,01,47,18.20
2009,08,29,01,48,18.10
2009,08,29,01,49,18.00
2009,08,29,01,50,17.90
2009,08,29,01,51,17.90
2009,08,29,01,52,17.80
2009,08,29,01,53,17.70
2009,08,29,01,54,17.70
2009,08,29,01,55,17.60
2009,08,29,01,56,17.60
2009,08,29,01,57,17.50
2009,08,29,01,58,17.50
2009,08,29,01,59,17.50
2009,08,29,02,00,17.40
2009,08,29,02,01,17.40
2009,08,29,02,02,17.40
2009,08,29,02,03,17.30
2009,08,29,02,04,17.30
2009,08,29,02,05,17.30
2009,08,29,02,06,17.30
2009,08,29,02,07,17.20
2009,08,29,02,08,17.20
2009,08,29,02,09,17.20
2009,08,29,02,10,17.10
2009,08,29,02,11,17.10
2009,08,29,02,12,17.00
2009,08,29,02,13,17.00
2009,08,29,02,14,17.00
2009,08,29,02,15,16.90
2009,08,29,02,16,16.90
2009,08,29,02,17,16.90
2009,08,29,02,18,16.80
2009,08,29,02,19,16.80
2009,08,29,02,20,16.70
2009,08,29,02,21,16.70
2009,08,29,02,22,16.70
2009,08,29,02,23,16.70
2009,08,29,02,24,16.70
2009,08,29,02,25,16.70
2009,08,29,02,26,16.60
2009,08,29,02,27,16.60
2009,08,29,02,28,16.60
2009,08,29,02,29,16.60
2009,08,29,02,30,16.50
2009,08,29,02,31,16.40
2009,08,29,02,32,16.40
2009,08,29,02,33,16.40
2009,08,29,02,34,16.40
2009,08,29,02,35,16.40
2009,08,29,02,36,16.40
2009,08,29,02,37,16.40
2009,08,29,02,38,16.40
2009,08,29,02,39,16.40
2009,08,29,02,40,16.40
2009,08,29,02,41,16.40
2009,08,29,02,42,16.30
2009,08,29,02,43,16.30
2009,08,29,02,44,16.30
2009,08,29,02,45,16.30
2009,08,29,02,46,16.30
2009,08,29,02,47,16.30
2009,08,29,02,48,16.30
2009,08,29,02,49,16.40
2009,08,29,02,50,16.40
2009,08,29,02,51,16.40
2009,08,29,02,52,16.40
2009,08,29,02,53,16.50
2009,08,29,02,54,16.60
2009,08,29,02,55,16.60
2009,08,29,02,56,16.60
2009,08,29,02,57,16.60
2009,08,29,02,58,16.70
2009,08,29,02,59,16.70
2009,08,29,03,00,16.70
2009,08,29,03,01,16.70
2009,08,29,03,02,16.60
2009,08,29,03,03,16.60
2009,08,29,03,04,16.60
2009,08,29,03,05,16.60
2009,08,29,03,06,16.40
2009,08,29,03,07,16.40
2009,08,29,03,08,16.40
2009,08,29,03,09,16.40
2009,08,29,03,10,16.40
2009,08,29,03,11,16.30
2009,08,29,03,12,16.30
2009,08,29,03,13,16.30
2009,08,29,03,14,16.30
2009,08,29,03,15,16.20
2009,08,29,03,16,16.20
2009,08,29,03,17,16.20
2009,08,29,03,18,16.20
2009,08,29,03,19,16.20
2009,08,29,03,20,16.20
2009,08,29,03,21,16.20
2009,08,29,03,22,16.20
2009,08,29,03,23,16.20
2009,08,29,03,24,16.20
2009,08,29,03,25,16.20
2009,08,29,03,26,16.20
2009,08,29,03,27,16.20
2009,08,29,03,28,16.20
2009,08,29,03,29,16.20
2009,08,29,03,30,16.20
2009,08,29,03,31,16.20
2009,08,29,03,32,16.20
2009,08,29,03,33,16.10
2009,08,29,03,34,16.10
2009,08,29,03,35,16.10
2009,08,29,03,36,16.10
2009,08,29,03,37,16.10
2009,08,29,03,38,16.10
2009,08,29,03,39,16.10
2009,08,29,03,40,16.10
2009,08,29,03,41,16.10
2009,08,29,03,42,16.10
2009,08,29,03,43,16.10
2009,08,29,03,44,16.00
2009,08,29,03,45,15.90
2009,08,29,03,46,15.90
2009,08,29,03,47,15.90
2009,08,29,03,48,15.90
2009,08,29,03,49,15.80
2009,08,29,03,50,15.80
2009,08,29,03,51,15.80
2009,08,29,03,52,15.80
2009,08,29,03,53,15.80
2009,08,29,03,54,15.80
2009,08,29,03,55,15.80
2009,08,29,03,56,15.80
2009,08,29,03,57,15.80
2009,08,29,03,58,15.80
2009,08,29,03,59,15.80
2009,08,29,04,00,15.80
2009,08,29,04,01,15.80
2009,08,29,04,02,15.80
2009,08,29,04,03,15.80
2009,08,29,04,04,15.80
2009,08,29,04,05,15.80
2009,08,29,04,06,15.80
2009,08,29,04,07,15.80
2009,08,29,04,08,15.80
2009,08,29,04,09,15.80
2009,08,29,04,10,15.80
2009,08,29,04,11,15.80
2009,08,29,04,12,15.80
2009,08,29,04,13,15.80
2009,08,29,04,14,15.80
2009,08,29,04,15,15.80
2009,08,29,04,16,15.80
2009,08,29,04,17,15.80
2009,08,29,04,18,15.80
2009,08,29,04,19,15.80
2009,08,29,04,20,15.80
2009,08,29,04,21,15.80
2009,08,29,04,22,15.80
2009,08,29,04,23,15.80
2009,08,29,04,24,15.80
2009,08,29,04,25,15.80
2009,08,29,04,26,15.80
2009,08,29,04,27,15.80
2009,08,29,04,28,15.80
2009,08,29,04,29,15.80
2009,08,29,04,30,15.80
2009,08,29,04,31,15.80
2009,08,29,04,32,15.80
2009,08,29,04,33,15.80
2009,08,29,04,34,15.80
2009,08,29,04,35,15.80
2009,08,29,04,36,15.80
2009,08,29,04,37,15.80
2009,08,29,04,38,15.80
2009,08,29,04,39,15.80
2009,08,29,04,40,15.80
2009,08,29,04,41,15.80
2009,08,29,04,42,15.80
2009,08,29,04,43,15.80
2009,08,29,04,44,15.80
2009,08,29,04,45,15.80
2009,08,29,04,46,15.80
2009,08,29,04,47,15.80
2009,08,29,04,48,15.80
2009,08,29,04,49,15.80
2009,08,29,04,50,15.80
2009,08,29,04,51,15.80
2009,08,29,04,52,15.80
2009,08,29,04,53,15.80
2009,08,29,04,54,15.80
2009,08,29,04,55,15.80
2009,08,29,04,56,15.80
2009,08,29,04,57,15.80
2009,08,29,04,58,15.80
2009,08,29,04,59,15.80
2009,08,29,05,00,15.80
2009,08,29,05,01,15.80
2009,08,29,05,02,15.80
2009,08,29,05,03,15.80
2009,08,29,05,04,15.80
2009,08,29,05,05,15.80
2009,08,29,05,06,15.80
2009,08,29,05,07,15.80
2009,08,29,05,08,15.80
2009,08,29,05,09,15.80
2009,08,29,05,10,15.80
2009,08,29,05,11,15.70
2009,08,29,05,12,15.70
2009,08,29,05,13,15.70
2009,08,29,05,14,15.70
2009,08,29,05,15,15.70
2009,08,29,05,16,15.70
2009,08,29,05,17,15.60
2009,08,29,05,18,15.60
2009,08,29,05,19,15.60
2009,08,29,05,20,15.60
2009,08,29,05,21,15.60
2009,08,29,05,22,15.60
2009,08,29,05,23,15.60
2009,08,29,05,24,15.60
2009,08,29,05,25,15.60
2009,08,29,05,26,15.60
2009,08,29,05,27,15.60
2009,08,29,05,28,15.60
2009,08,29,05,29,15.60
2009,08,29,05,30,15.60
2009,08,29,05,31,15.60
2009,08,29,05,32,15.60
2009,08,29,05,33,15.60
2009,08,29,05,34,15.50
2009,08,29,05,35,15.50
2009,08,29,05,36,15.50
2009,08,29,05,37,15.50
2009,08,29,05,38,15.50
2009,08,29,05,39,15.50
2009,08,29,05,40,15.50
2009,08,29,05,41,15.50
2009,08,29,05,42,15.50
2009,08,29,05,43,15.50
2009,08,29,05,44,15.50
2009,08,29,05,45,15.50
2009,08,29,05,46,15.50
2009,08,29,05,47,15.60
2009,08,29,05,48,15.60
2009,08,29,05,49,15.60
2009,08,29,05,50,15.60
2009,08,29,05,51,15.60
2009,08,29,05,52,15.60
2009,08,29,05,53,15.60
2009,08,29,05,54,15.70
2009,08,29,05,55,15.70
2009,08,29,05,56,15.70
2009,08,29,05,57,15.70
2009,08,29,05,58,15.70
2009,08,29,05,59,15.70
2009,08,29,06,00,15.80
2009,08,29,06,01,15.80
2009,08,29,06,02,15.80
2009,08,29,06,03,15.80
2009,08,29,06,04,15.80
2009,08,29,06,05,15.80
2009,08,29,06,06,15.80
2009,08,29,06,07,15.80
2009,08,29,06,08,15.80
2009,08,29,06,09,15.80
2009,08,29,06,10,15.80
2009,08,29,06,11,15.80
2009,08,29,06,12,15.80
2009,08,29,06,13,15.80
2009,08,29,06,14,15.80
2009,08,29,06,15,15.80
2009,08,29,06,16,15.80
2009,08,29,06,17,15.80
2009,08,29,06,18,15.80
2009,08,29,06,19,15.80
2009,08,29,06,20,15.80
2009,08,29,06,21,15.80
2009,08,29,06,22,15.80
2009,08,29,06,23,15.80
2009,08,29,06,24,15.80
2009,08,29,06,25,15.80
2009,08,29,06,26,15.80
2009,08,29,06,27,15.80
2009,08,29,06,28,15.80
2009,08,29,06,29,15.80
2009,08,29,06,30,15.80
2009,08,29,06,31,15.80
2009,08,29,06,32,15.80
2009,08,29,06,33,15.80
2009,08,29,06,34,15.80
2009,08,29,06,35,15.80
2009,08,29,06,36,15.80
2009,08,29,06,37,15.80
2009,08,29,06,38,15.80
2009,08,29,06,39,15.80
2009,08,29,06,40,15.80
2009,08,29,06,41,15.80
2009,08,29,06,42,15.80
2009,08,29,06,43,15.80
2009,08,29,06,44,15.80
2009,08,29,06,45,15.80
2009,08,29,06,46,15.80
2009,08,29,06,47,15.80
2009,08,29,06,48,15.80
2009,08,29,06,49,15.80
2009,08,29,06,50,15.80
2009,08,29,06,51,15.80
2009,08,29,06,52,15.80
2009,08,29,06,53,15.80
2009,08,29,06,54,15.80
2009,08,29,06,55,15.80
2009,08,29,06,56,15.80
2009,08,29,06,57,15.80
2009,08,29,06,58,15.80
2009,08,29,06,59,15.80
2009,08,29,07,00,15.80
2009,08,29,07,01,15.80
2009,08,29,07,02,15.80
2009,08,29,07,03,15.80
2009,08,29,07,04,15.80
2009,08,29,07,05,15.80
2009,08,29,07,06,15.80
2009,08,29,07,07,15.80
2009,08,29,07,08,15.80
2009,08,29,07,09,15.80
2009,08,29,07,10,15.80
2009,08,29,07,11,15.80
2009,08,29,07,12,15.80
2009,08,29,07,13,15.80
2009,08,29,07,14,15.80
2009,08,29,07,15,15.80
2009,08,29,07,16,15.80
2009,08,29,07,17,15.80
2009,08,29,07,18,15.80
2009,08,29,07,19,15.80
2009,08,29,07,20,15.80
2009,08,29,07,21,15.80
2009,08,29,07,22,15.70
2009,08,29,07,23,15.70
2009,08,29,07,24,15.70
2009,08,29,07,25,15.70
2009,08,29,07,26,15.70
2009,08,29,07,27,15.60
2009,08,29,07,28,15.60
2009,08,29,07,29,15.60
2009,08,29,07,30,15.60
2009,08,29,07,31,15.60
2009,08,29,07,32,15.60
2009,08,29,07,33,15.60
2009,08,29,07,34,15.60
2009,08,29,07,35,15.60
2009,08,29,07,36,15.60
2009,08,29,07,37,15.60
2009,08,29,07,38,15.60
2009,08,29,07,39,15.60
2009,08,29,07,40,15.60
2009,08,29,07,41,15.60
2009,08,29,07,42,15.60
2009,08,29,07,43,15.60
2009,08,29,07,44,15.60
2009,08,29,07,45,15.60
2009,08,29,07,46,15.60
2009,08,29,07,47,15.60
2009,08,29,07,48,15.60
2009,08,29,07,49,15.60
2009,08,29,07,50,15.60
2009,08,29,07,51,15.60
2009,08,29,07,52,15.60
2009,08,29,07,53,15.60
2009,08,29,07,54,15.60
2009,08,29,07,55,15.50
2009,08,29,07,56,15.50
2009,08,29,07,57,15.50
2009,08,29,07,58,15.50
2009,08,29,07,59,15.50
2009,08,29,08,00,15.50
2009,08,29,08,01,15.50
2009,08,29,08,02,15.50
2009,08,29,08,03,15.50
2009,08,29,08,04,15.50
2009,08,29,08,05,15.50
2009,08,29,08,06,15.50
2009,08,29,08,07,15.50
2009,08,29,08,08,15.50
2009,08,29,08,09,15.50
2009,08,29,08,10,15.50
2009,08,29,08,11,15.50
2009,08,29,08,12,15.50
2009,08,29,08,13,15.40
2009,08,29,08,14,15.40
2009,08,29,08,15,15.40
2009,08,29,08,16,15.40
2009,08,29,08,17,15.40
2009,08,29,08,18,15.40
2009,08,29,08,19,15.40
2009,08,29,08,20,15.40
2009,08,29,08,21,15.40
2009,08,29,08,22,15.50
2009,08,29,08,23,15.50
2009,08,29,08,24,15.50
2009,08,29,08,25,15.60
2009,08,29,08,26,15.60
2009,08,29,08,27,15.60
2009,08,29,08,28,15.70
2009,08,29,08,29,15.80
2009,08,29,08,30,15.80
2009,08,29,08,31,15.90
2009,08,29,08,32,16.00
2009,08,29,08,33,16.10
2009,08,29,08,34,16.10
2009,08,29,08,35,16.20
2009,08,29,08,36,16.30
2009,08,29,08,37,16.30
2009,08,29,08,38,16.30
2009,08,29,08,39,16.40
2009,08,29,08,40,16.30
2009,08,29,08,41,16.30
2009,08,29,08,42,16.30
2009,08,29,08,43,16.30
2009,08,29,08,44,16.30
2009,08,29,08,45,16.20
2009,08,29,08,46,16.20
2009,08,29,08,47,16.20
2009,08,29,08,48,16.20
2009,08,29,08,49,16.20
2009,08,29,08,50,16.20
2009,08,29,08,51,16.20
2009,08,29,08,52,16.20
2009,08,29,08,53,16.20
2009,08,29,08,54,16.20
2009,08,29,08,55,16.30
2009,08,29,08,56,16.30
2009,08,29,08,57,16.40
2009,08,29,08,58,16.40
2009,08,29,08,59,16.40
2009,08,29,09,00,16.40
2009,08,29,09,01,16.40
2009,08,29,09,02,16.40
2009,08,29,09,03,16.40
2009,08,29,09,04,16.40
2009,08,29,09,05,16.50
2009,08,29,09,06,16.60
2009,08,29,09,07,16.60
2009,08,29,09,08,16.60
2009,08,29,09,09,16.70
2009,08,29,09,10,16.70
2009,08,29,09,11,16.80
2009,08,29,09,12,16.80
2009,08,29,09,13,16.90
2009,08,29,09,14,16.90
2009,08,29,09,15,17.00
2009,08,29,09,16,17.00
2009,08,29,09,17,17.10
2009,08,29,09,18,17.20
2009,08,29,09,19,17.30
2009,08,29,09,20,17.50
2009,08,29,09,21,17.50
2009,08,29,09,22,17.50
2009,08,29,09,23,17.60
2009,08,29,09,24,17.60
2009,08,29,09,25,17.60
2009,08,29,09,26,17.60
2009,08,29,09,27,17.70
2009,08,29,09,28,17.70
2009,08,29,09,29,17.80
2009,08,29,09,30,17.80
2009,08,29,09,31,17.90
2009,08,29,09,32,17.90
2009,08,29,09,33,17.90
2009,08,29,09,34,17.90
2009,08,29,09,35,18.00
2009,08,29,09,36,18.10
2009,08,29,09,37,18.10
2009,08,29,09,38,18.20
2009,08,29,09,39,18.20
2009,08,29,09,40,18.20
2009,08,29,09,41,18.20
2009,08,29,09,42,18.20
2009,08,29,09,43,18.40
2009,08,29,09,44,18.50
2009,08,29,09,45,18.60
2009,08,29,09,46,18.60
2009,08,29,09,47,18.80
2009,08,29,09,48,18.90
2009,08,29,09,49,18.90
2009,08,29,09,50,19.10
2009,08,29,09,51,19.10
2009,08,29,09,52,19.10
2009,08,29,09,53,19.30
2009,08,29,09,54,19.30
2009,08,29,09,55,19.30
2009,08,29,09,56,19.40
2009,08,29,09,57,19.40
2009,08,29,09,58,19.40
2009,08,29,09,59,19.50
2009,08,29,10,00,19.60
2009,08,29,10,01,19.70
2009,08,29,10,02,19.80
2009,08,29,10,03,19.80
2009,08,29,10,04,19.90
2009,08,29,10,05,19.90
2009,08,29,10,06,19.90
2009,08,29,10,07,19.90
2009,08,29,10,08,20.00
2009,08,29,10,09,20.10
2009,08,29,10,10,20.20
2009,08,29,10,11,20.20
2009,08,29,10,12,20.20
2009,08,29,10,13,20.20
2009,08,29,10,14,20.30
2009,08,29,10,15,20.40
2009,08,29,10,16,20.40
2009,08,29,10,17,20.50
2009,08,29,10,18,20.60
2009,08,29,10,19,20.70
2009,08,29,10,20,20.70
2009,08,29,10,21,20.70
2009,08,29,10,22,20.80
2009,08,29,10,23,20.80
2009,08,29,10,24,20.90
2009,08,29,10,25,20.90
2009,08,29,10,26,21.00
2009,08,29,10,27,21.00
2009,08,29,10,28,21.00
2009,08,29,10,29,21.10
2009,08,29,10,30,21.10
2009,08,29,10,31,21.20
2009,08,29,10,32,21.20
2009,08,29,10,33,21.30
2009,08,29,10,34,21.30
2009,08,29,10,35,21.30
2009,08,29,10,36,21.30
2009,08,29,10,37,21.30
2009,08,29,10,38,21.40
2009,08,29,10,39,21.50
2009,08,29,10,40,21.60
2009,08,29,10,41,21.60
2009,08,29,10,42,21.60
2009,08,29,10,43,21.60
2009,08,29,10,44,21.70
2009,08,29,10,45,21.80
2009,08,29,10,46,21.90
2009,08,29,10,47,21.90
2009,08,29,10,48,22.00
2009,08,29,10,49,22.00
2009,08,29,10,50,21.90
2009,08,29,10,51,21.90
2009,08,29,10,52,21.90
2009,08,29,10,53,22.00
2009,08,29,10,54,22.00
2009,08,29,10,55,22.10
2009,08,29,10,56,22.10
2009,08,29,10,57,22.10
2009,08,29,10,58,22.10
2009,08,29,10,59,22.10
2009,08,29,11,00,22.10
2009,08,29,11,01,22.20
2009,08,29,11,02,22.20
2009,08,29,11,03,22.00
2009,08,29,11,04,21.80
2009,08,29,11,05,21.80
2009,08,29,11,06,22.00
2009,08,29,11,07,22.00
2009,08,29,11,08,22.00
2009,08,29,11,09,22.10
2009,08,29,11,10,22.00
2009,08,29,11,11,22.00
2009,08,29,11,12,22.00
2009,08,29,11,13,22.00
2009,08,29,11,14,22.10
2009,08,29,11,15,22.10
2009,08,29,11,16,22.20
2009,08,29,11,17,22.10
2009,08,29,11,18,21.90
2009,08,29,11,19,21.70
2009,08,29,11,20,21.70
2009,08,29,11,21,21.70
2009,08,29,11,22,21.70
2009,08,29,11,23,21.70
2009,08,29,11,24,21.80
2009,08,29,11,25,22.00
2009,08,29,11,26,22.00
2009,08,29,11,27,22.20
2009,08,29,11,28,22.30
2009,08,29,11,29,22.40
2009,08,29,11,30,22.30
2009,08,29,11,31,22.30
2009,08,29,11,32,22.40
2009,08,29,11,33,22.40
2009,08,29,11,34,22.40
2009,08,29,11,35,22.50
2009,08,29,11,36,22.50
2009,08,29,11,37,22.50
2009,08,29,11,38,22.40
2009,08,29,11,39,22.40
2009,08,29,11,40,22.40
2009,08,29,11,41,22.40
2009,08,29,11,42,22.20
2009,08,29,11,43,22.10
2009,08,29,11,44,22.00
2009,08,29,11,45,21.90
2009,08,29,11,46,21.80
2009,08,29,11,47,21.80
2009,08,29,11,48,21.90
2009,08,29,11,49,21.90
2009,08,29,11,50,21.80
2009,08,29,11,51,21.90
2009,08,29,11,52,22.00
2009,08,29,11,53,22.10
2009,08,29,11,54,22.20
2009,08,29,11,55,22.20
2009,08,29,11,56,22.20
2009,08,29,11,57,22.20
2009,08,29,11,58,22.20
2009,08,29,11,59,22.20
2009,08,29,12,00,22.10
2009,08,29,12,01,22.20
2009,08,29,12,02,22.10
2009,08,29,12,03,22.00
2009,08,29,12,04,22.00
2009,08,29,12,05,22.00
2009,08,29,12,06,21.90
2009,08,29,12,07,21.60
2009,08,29,12,08,21.60
2009,08,29,12,09,21.60
2009,08,29,12,10,21.60
2009,08,29,12,11,21.60
2009,08,29,12,12,21.60
2009,08,29,12,13,21.60
2009,08,29,12,14,21.60
2009,08,29,12,15,21.60
2009,08,29,12,16,21.60
2009,08,29,12,17,21.70
2009,08,29,12,18,21.80
2009,08,29,12,19,21.80
2009,08,29,12,20,21.80
2009,08,29,12,21,21.90
2009,08,29,12,22,21.90
2009,08,29,12,23,21.90
2009,08,29,12,24,21.80
2009,08,29,12,25,21.70
2009,08,29,12,26,21.70
2009,08,29,12,27,21.70
2009,08,29,12,28,21.60
2009,08,29,12,29,21.70
2009,08,29,12,30,21.80
2009,08,29,12,31,21.90
2009,08,29,12,32,22.00
2009,08,29,12,33,22.00
2009,08,29,12,34,22.00
2009,08,29,12,35,22.10
2009,08,29,12,36,22.20
2009,08,29,12,37,22.20
2009,08,29,12,38,22.30
2009,08,29,12,39,22.20
2009,08,29,12,40,22.10
2009,08,29,12,41,22.10
2009,08,29,12,42,22.10
2009,08,29,12,43,22.20
2009,08,29,12,44,22.10
2009,08,29,12,45,22.00
2009,08,29,12,46,21.90
2009,08,29,12,47,21.90
2009,08,29,12,48,22.00
2009,08,29,12,49,22.10
2009,08,29,12,50,22.20
2009,08,29,12,51,22.30
2009,08,29,12,52,22.50
2009,08,29,12,53,22.60
2009,08,29,12,54,22.60
2009,08,29,12,55,22.60
2009,08,29,12,56,22.60
2009,08,29,12,57,22.50
2009,08,29,12,58,22.50
2009,08,29,12,59,22.50
2009,08,29,13,00,22.40
2009,08,29,13,01,22.40
2009,08,29,13,02,22.40
2009,08,29,13,03,22.30
2009,08,29,13,04,22.30
2009,08,29,13,05,22.20
2009,08,29,13,06,22.20
2009,08,29,13,07,22.20
2009,08,29,13,08,22.30
2009,08,29,13,09,22.50
2009,08,29,13,10,22.60
2009,08,29,13,11,22.70
2009,08,29,13,12,22.80
2009,08,29,13,13,22.80
2009,08,29,13,14,22.80
2009,08,29,13,15,22.80
2009,08,29,13,16,22.70
2009,08,29,13,17,22.60
2009,08,29,13,18,22.60
2009,08,29,13,19,22.60
2009,08,29,13,20,22.70
2009,08,29,13,21,22.80
2009,08,29,13,22,22.70
2009,08,29,13,23,22.60
2009,08,29,13,24,22.60
2009,08,29,13,25,22.70
2009,08,29,13,26,22.70
2009,08,29,13,27,22.80
2009,08,29,13,28,22.80
2009,08,29,13,29,22.80
2009,08,29,13,30,22.80
2009,08,29,13,31,22.80
2009,08,29,13,32,22.60
2009,08,29,13,33,22.40
2009,08,29,13,34,22.40
2009,08,29,13,35,22.50
2009,08,29,13,36,22.60
2009,08,29,13,37,22.80
2009,08,29,13,38,22.90
2009,08,29,13,39,23.00
2009,08,29,13,40,23.10
2009,08,29,13,41,23.20
2009,08,29,13,42,23.30
2009,08,29,13,43,23.30
2009,08,29,13,44,23.30
2009,08,29,13,45,23.30
2009,08,29,13,46,23.30
2009,08,29,13,47,23.30
2009,08,29,13,48,23.30
2009,08,29,13,49,23.30
2009,08,29,13,50,23.30
2009,08,29,13,51,23.20
2009,08,29,13,52,23.10
2009,08,29,13,53,23.20
2009,08,29,13,54,23.20
2009,08,29,13,55,23.20
2009,08,29,13,56,23.20
2009,08,29,13,57,23.30
2009,08,29,13,58,23.20
2009,08,29,13,59,23.00
2009,08,29,14,00,22.90
2009,08,29,14,01,22.90
2009,08,29,14,02,23.00
2009,08,29,14,03,23.10
2009,08,29,14,04,23.10
2009,08,29,14,05,23.20
2009,08,29,14,06,23.20
2009,08,29,14,07,23.30
2009,08,29,14,08,23.10
2009,08,29,14,09,23.10
2009,08,29,14,10,23.10
2009,08,29,14,11,23.00
2009,08,29,14,12,22.90
2009,08,29,14,13,22.90
2009,08,29,14,14,23.00
2009,08,29,14,15,23.10
2009,08,29,14,16,23.20
2009,08,29,14,17,23.30
2009,08,29,14,18,23.50
2009,08,29,14,19,23.70
2009,08,29,14,20,23.70
2009,08,29,14,21,23.70
2009,08,29,14,22,23.60
2009,08,29,14,23,23.50
2009,08,29,14,24,23.30
2009,08,29,14,25,23.30
2009,08,29,14,26,23.20
2009,08,29,14,27,23.20
2009,08,29,14,28,23.20
2009,08,29,14,29,23.30
2009,08,29,14,30,23.30
2009,08,29,14,31,23.30
2009,08,29,14,32,23.40
2009,08,29,14,33,23.40
2009,08,29,14,34,23.40
2009,08,29,14,35,23.40
2009,08,29,14,36,23.40
2009,08,29,14,37,23.30
2009,08,29,14,38,23.20
2009,08,29,14,39,23.10
2009,08,29,14,40,23.00
2009,08,29,14,41,23.00
2009,08,29,14,42,23.10
2009,08,29,14,43,23.10
2009,08,29,14,44,23.20
2009,08,29,14,45,23.20
2009,08,29,14,46,23.20
2009,08,29,14,47,23.20
2009,08,29,14,48,23.20
2009,08,29,14,49,23.20
2009,08,29,14,50,23.10
2009,08,29,14,51,23.10
2009,08,29,14,52,23.10
2009,08,29,14,53,23.10
2009,08,29,14,54,23.00
2009,08,29,14,55,22.90
2009,08,29,14,56,22.90
2009,08,29,14,57,22.90
2009,08,29,14,58,22.90
2009,08,29,14,59,23.00
2009,08,29,15,00,23.10
2009,08,29,15,01,23.10
2009,08,29,15,02,23.10
2009,08,29,15,03,23.10
2009,08,29,15,04,23.10
2009,08,29,15,05,23.10
2009,08,29,15,06,23.00
2009,08,29,15,07,22.90
2009,08,29,15,08,22.80
2009,08,29,15,09,22.80
2009,08,29,15,10,22.70
2009,08,29,15,11,22.70
2009,08,29,15,12,22.70
2009,08,29,15,13,22.70
2009,08,29,15,14,22.70
2009,08,29,15,15,22.70
2009,08,29,15,16,22.80
2009,08,29,15,17,22.80
2009,08,29,15,18,22.80
2009,08,29,15,19,22.80
2009,08,29,15,20,22.80
2009,08,29,15,21,22.80
2009,08,29,15,22,22.80
2009,08,29,15,23,22.80
2009,08,29,15,24,22.70
2009,08,29,15,25,22.60
2009,08,29,15,26,22.70
2009,08,29,15,27,22.70
2009,08,29,15,28,22.70
2009,08,29,15,29,22.80
2009,08,29,15,30,22.80
2009,08,29,15,31,22.80
2009,08,29,15,32,22.80
2009,08,29,15,33,22.70
2009,08,29,15,34,22.70
2009,08,29,15,35,22.70
2009,08,29,15,36,22.60
2009,08,29,15,37,22.60
2009,08,29,15,38,22.60
2009,08,29,15,39,22.70
2009,08,29,15,40,22.80
2009,08,29,15,41,22.80
2009,08,29,15,42,22.80
2009,08,29,15,43,22.80
2009,08,29,15,44,22.90
2009,08,29,15,45,22.90
2009,08,29,15,46,22.90
2009,08,29,15,47,22.90
2009,08,29,15,48,22.90
2009,08,29,15,49,22.90
2009,08,29,15,50,23.00
2009,08,29,15,51,23.10
2009,08,29,15,52,23.10
2009,08,29,15,53,23.20
2009,08,29,15,54,23.30
2009,08,29,15,55,23.30
2009,08,29,15,56,23.30
2009,08,29,15,57,23.20
2009,08,29,15,58,23.20
2009,08,29,15,59,23.10
2009,08,29,16,00,23.10
2009,08,29,16,01,23.00
2009,08,29,16,02,22.90
2009,08,29,16,03,22.90
2009,08,29,16,04,22.80
2009,08,29,16,05,22.80
2009,08,29,16,06,22.80
2009,08,29,16,07,22.80
2009,08,29,16,08,22.90
2009,08,29,16,09,22.90
2009,08,29,16,10,23.00
2009,08,29,16,11,23.00
2009,08,29,16,12,22.90
2009,08,29,16,13,22.90
2009,08,29,16,14,22.90
2009,08,29,16,15,22.90
2009,08,29,16,16,22.90
2009,08,29,16,17,22.80
2009,08,29,16,18,22.80
2009,08,29,16,19,22.80
2009,08,29,16,20,22.80
2009,08,29,16,21,22.70
2009,08,29,16,22,22.70
2009,08,29,16,23,22.60
2009,08,29,16,24,22.50
2009,08,29,16,25,22.40
2009,08,29,16,26,22.40
2009,08,29,16,27,22.20
2009,08,29,16,28,22.10
2009,08,29,16,29,22.10
2009,08,29,16,30,22.10
2009,08,29,16,31,22.10
2009,08,29,16,32,22.10
2009,08,29,16,33,22.10
2009,08,29,16,34,22.20
2009,08,29,16,35,22.30
2009,08,29,16,36,22.40
2009,08,29,16,37,22.40
2009,08,29,16,38,22.40
2009,08,29,16,39,22.40
2009,08,29,16,40,22.50
2009,08,29,16,41,22.50
2009,08,29,16,42,22.50
2009,08,29,16,43,22.50
2009,08,29,16,44,22.50
2009,08,29,16,45,22.60
2009,08,29,16,46,22.60
2009,08,29,16,47,22.60
2009,08,29,16,48,22.60
2009,08,29,16,49,22.60
2009,08,29,16,50,22.60
2009,08,29,16,51,22.60
2009,08,29,16,52,22.60
2009,08,29,16,53,22.50
2009,08,29,16,54,22.50
2009,08,29,16,55,22.40
2009,08,29,16,56,22.30
2009,08,29,16,57,22.20
2009,08,29,16,58,22.20
2009,08,29,16,59,22.10
2009,08,29,17,00,22.00
2009,08,29,17,01,22.00
2009,08,29,17,02,22.00
2009,08,29,17,03,21.90
2009,08,29,17,04,21.80
2009,08,29,17,05,21.70
2009,08,29,17,06,21.60
2009,08,29,17,07,21.60
2009,08,29,17,08,21.60
2009,08,29,17,09,21.70
2009,08,29,17,10,21.70
2009,08,29,17,11,21.60
2009,08,29,17,12,21.60
2009,08,29,17,13,21.60
2009,08,29,17,14,21.60
2009,08,29,17,15,21.60
2009,08,29,17,16,21.60
2009,08,29,17,17,21.60
2009,08,29,17,18,21.40
2009,08,29,17,19,21.30